Weather History for Garden City, KS

Change the Weather History Date:

Tuesday, January 1, 2013

  Actual Average Record
Temperature  
Mean Temperature 12 °F 30 °F  
Max Temperature 20 °F 44 °F 69 °F (1997)
Min Temperature 4 °F 18 °F -9 °F (1979)
Degree Days  
Heating Degree Days 53 34  
Month to date heating degree days 53 34  
Since 1 July heating degree days 2023 2157  
Cooling Degree Days 0 0  
Month to date cooling degree days 0 0  
Year to date cooling degree days 0 0  
Moisture  
Dew Point 9 °F    
Average Humidity 92    
Maximum Humidity 100    
Minimum Humidity 83    
Precipitation  
Precipitation T in 0.01 in 0.29 in (2007)
Month to date precipitation T 0.01  
Year to date precipitation T 0.01  
Sea Level Pressure  
Sea Level Pressure 30.23 in    
Wind  
Wind Speed 7 mph (NW)    
Max Wind Speed 14 mph    
Max Gust Speed 16 mph    
Visibility 6 miles    
Events Rain , Snow    
T = Trace of Precipitation, MM = Missing Value Source: NWS Daily Summary

Daily Weather History Graph

Daily Weather History Graph

Search for Another Location

Airport:

Trip Planner

Search our weather history database for the weather conditions in past years. The results will help you decide how hot, cold, wet, or windy it might be!

Date:

Astronomy

Jan. 01, 2013 Rise Set
Actual Time 7:58 AM CST 5:34 PM CST
Civil Twilight 7:29 AM CST 6:04 PM CST
Nautical Twilight 6:56 AM CST 6:36 PM CST
Astronomical Twilight 6:24 AM CST 7:08 PM CST
Moon 10:02 PM CST (1/1) 10:16 AM CST (1/1)
Length of Visible Light 10h 34m
Length of Day
9h 35m
Waning Gibbous, 83% of the Moon is Illuminated
Jan 1
Waning Gibbous
Jan 4
Last Quarter
Jan 11
New
Jan 18
First Quarter
Jan 26
Full

Hourly Weather History & Observations

Time (CST) Temp. Windchill Dew Point Humidity Pressure Visibility Wind Dir Wind Speed Gust Speed Precip Events Conditions
12:07 AM 5.0 °F -8.1 °F 3.2 °F 92% 30.12 in 5.0 mi NNW 8.1 mph - 0.00 in Rain Light Freezing Rain
12:31 AM 8.6 °F -3.7 °F 6.8 °F 92% 30.12 in 5.0 mi North 8.1 mph - 0.00 in Snow Light Snow
12:47 AM 8.6 °F -4.7 °F 6.8 °F 92% 30.12 in 2.5 mi North 9.2 mph - 0.00 in Snow Light Snow
12:54 AM 10.9 °F -1.8 °F 8.1 °F 88% 30.25 in 2.5 mi North 9.2 mph - 0.00 in Snow Light Snow
1:00 AM 10.4 °F -1.5 °F 8.6 °F 92% 30.12 in 3.0 mi North 8.1 mph - 0.00 in Snow Light Snow
1:54 AM 5.0 °F -9.1 °F 3.0 °F 92% 30.26 in 6.0 mi North 9.2 mph - 0.00 in   Mostly Cloudy
2:54 AM 8.6 °F -5.5 °F 6.8 °F 92% 30.13 in 6.0 mi North 10.4 mph - N/A   Overcast
3:03 AM 8.6 °F -4.7 °F 6.8 °F 92% 30.12 in 6.0 mi North 9.2 mph - 0.00 in   Overcast
3:54 AM 12.2 °F -3.1 °F 10.4 °F 92% 30.11 in 4.0 mi North 13.8 mph - N/A Snow Light Snow
4:28 AM 10.4 °F -4.8 °F 8.6 °F 92% 30.12 in 5.0 mi North 12.7 mph - 0.00 in Rain Light Freezing Rain
4:54 AM 8.6 °F -5.5 °F 6.8 °F 92% 30.13 in 7.0 mi North 10.4 mph - N/A   Partly Cloudy
5:04 AM 6.8 °F -7.8 °F 5.0 °F 92% 30.13 in 5.0 mi North 10.4 mph - 0.00 in Rain Light Freezing Rain
5:54 AM 10.0 °F 0.4 °F 8.1 °F 92% 30.28 in 6.0 mi NNW 5.8 mph - 0.00 in Snow Light Snow
6:44 AM 12.2 °F -0.2 °F 10.4 °F 92% 30.17 in 1.8 mi NNW 9.2 mph - 0.00 in Snow Light Snow
6:54 AM 12.9 °F 0.7 °F 10.0 °F 88% 30.30 in 1.8 mi NNW 9.2 mph - 0.00 in Snow Light Snow
7:34 AM 12.2 °F 0.7 °F 8.6 °F 85% 30.19 in 2.5 mi North 8.1 mph - 0.00 in Snow Light Snow
7:44 AM 10.4 °F -0.4 °F 8.6 °F 92% 30.19 in 3.0 mi North 6.9 mph - 0.00 in Snow Light Snow
7:54 AM 10.0 °F -0.9 °F 7.0 °F 87% 30.32 in 4.0 mi North 6.9 mph - 0.00 in Snow Light Snow
8:08 AM 8.6 °F -2.6 °F 6.8 °F 92% 30.20 in 2.0 mi NNW 6.9 mph - 0.00 in Snow Light Snow
8:21 AM 6.8 °F -5.9 °F 5.0 °F 92% 30.20 in 3.0 mi NNW 8.1 mph - 0.00 in Snow Light Snow
8:54 AM 8.1 °F -3.2 °F 5.0 °F 87% 30.36 in 6.0 mi NW 6.9 mph - 0.00 in   Overcast
9:54 AM 8.6 °F -2.6 °F 6.8 °F 92% 30.24 in 7.0 mi NW 6.9 mph - N/A   Scattered Clouds
10:54 AM 12.2 °F 1.7 °F 8.6 °F 85% 30.25 in 8.0 mi NNW 6.9 mph - N/A   Clear
11:54 AM 16.0 °F 7.4 °F 12.0 °F 84% 30.39 in 7.0 mi NW 5.8 mph - N/A   Clear
12:32 PM 17.6 °F 9.3 °F 15.8 °F 93% 30.23 in 10.0 mi NW 5.8 mph - N/A   Partly Cloudy
12:54 PM 17.6 °F 7.3 °F 15.8 °F 93% 30.22 in 10.0 mi NNW 8.1 mph - N/A   Partly Cloudy
1:54 PM 19.0 °F - 15.1 °F 85% 30.35 in 10.0 mi Calm Calm - N/A   Clear
2:54 PM 19.4 °F - 15.8 °F 86% 30.19 in 10.0 mi Calm Calm - N/A   Clear
3:54 PM 19.4 °F 9.5 °F 15.8 °F 86% 30.20 in 9.0 mi WSW 8.1 mph - N/A   Clear
4:54 PM 18.0 °F - 14.0 °F 84% 30.32 in 10.0 mi Calm Calm - N/A   Clear
5:54 PM 14.0 °F 6.5 °F 12.0 °F 92% 30.32 in 10.0 mi WSW 4.6 mph - N/A   Clear
6:54 PM 9.0 °F 0.6 °F 8.1 °F 96% 30.33 in 9.0 mi SW 4.6 mph - N/A   Clear
7:54 PM 9.0 °F -3.2 °F 6.1 °F 88% 30.33 in 10.0 mi SW 8.1 mph - N/A   Clear
8:54 PM 8.1 °F -3.2 °F 6.1 °F 92% 30.33 in 9.0 mi SW 6.9 mph - N/A   Scattered Clouds
9:54 PM 9.0 °F -3.2 °F 7.0 °F 92% 30.33 in 9.0 mi WSW 8.1 mph - N/A   Overcast
10:54 PM 8.1 °F -5.3 °F 5.0 °F 87% 30.32 in 10.0 mi West 9.2 mph - N/A   Partly Cloudy
11:54 PM 6.1 °F -6.8 °F 3.9 °F 91% 30.32 in 8.0 mi West 8.1 mph - N/A   Clear